Miscellaneous Local Product
Issued by NWS Hastings, NE

Home | Current Version | Previous Version | Text Only | Print | Product List | Glossary On
Versions: 1 2 3 4 5 6 7 8 9 10 11 12 13 14 15 16 17 18 19 20 21 22 23 24 25 26 27 28 29 30 31 32 33 34 35 36 37 38 39 40 41 42 43 44 45 46 47 48 49 50
000
AXUS43 KGID 231702
MISGRI

GID CWA HOURLY WEATHER ROUNDUP
NATIONAL WEATHER SERVICE HASTINGS NE
1200 PM CDT FRI JUN 23 2017

NOTE: "FAIR" INDICATES FEW OR NO CLOUDS BELOW 12,000 FEET WITH NO
SIGNIFICANT WEATHER AND/OR OBSTRUCTIONS TO VISIBILITY.

...SOUTH CENTRAL NEBRASKA...

CITY           SKY/WX    TMP DP  RH WIND       PRES   REMARKS
GRAND ISLAND   MOSUNNY   68  49  50 N20G26    30.10F
HASTINGS       CLOUDY    65  49  56 N15       30.12F
KEARNEY        CLOUDY    66  45  45 N16G23    30.13S
ORD            SUNNY     68  45  43 N24G32    30.09S
YORK           HVY RAIN  63  50  63 N10G23    30.09R
AURORA         CLOUDY    64  51  62 N9        30.10S
LEXINGTON      CLOUDY    66  49  53 NW7       30.13F
HOLDREGE       CLOUDY    64  46  50 N12       30.13S
HEBRON         CLOUDY    71  46  40 N21G26    30.09S

...NEBRASKA PANHANDLE...

CITY           SKY/WX    TMP DP  RH WIND       PRES   REMARKS
CHADRON        SUNNY     65  37  35 NW13G21   30.20F
ALLIANCE       SUNNY     64  37  36 NW17G29   30.21S
SCOTTSBLUFF    SUNNY     66  35  31 NW16      30.23F
SIDNEY         CLOUDY    57  39  51 NW14      30.26S

...WESTERN AND NORTH CENTRAL NEBRASKA...

CITY           SKY/WX    TMP DP  RH WIND       PRES   REMARKS
VALENTINE      PTSUNNY   69  40  34 NW20G32   30.14S
AINSWORTH      PTSUNNY   64  46  51 N20G29    30.14R
ONEILL         MOSUNNY   66  49  54 NW21G28   30.09S
BROKEN BOW     SUNNY     69  46  43 NW17G26   30.12R
IMPERIAL       SUNNY     71  42  35 N12G22    30.20S
NORTH PLATTE   CLOUDY    72  42  34 NW17G23   30.15S
MCCOOK         MOSUNNY   72  45  37 N16G26    30.15F

...EASTERN NEBRASKA...

CITY           SKY/WX    TMP DP  RH WIND       PRES   REMARKS
NORFOLK        CLOUDY    66  49  54 N22G32    30.02S
SO SIOUX CITY  CLOUDY    64  52  64 NW20G29   30.00R
TEKAMAH        LGT RAIN  63  52  67 NW14      30.01S
COLUMBUS       CLOUDY    64  52  64 NW10      30.06F
ALBION         MOSUNNY   67  48  51 NW22G28   30.06R
OMAHA EPPLEY   CLOUDY    68  50  52 NW17G24   30.03R
MILLARD        CLOUDY    68  52  56 NW12G17   30.03R
LINCOLN        LGT RAIN  66  52  60 NW14      30.07R
NEBRASKA CITY  PTSUNNY   69  53  57 N20G25    30.03R
BEATRICE       MOSUNNY   71  51  48 N17G24    30.07R
FALLS CITY     PTSUNNY   71  54  54 NW20G28   30.00R

...NORTHERN KANSAS...

CITY           SKY/WX    TMP DP  RH WIND       PRES   REMARKS
GOODLAND       CLOUDY    63  45  51 N13G21    30.22R
HILL CITY      SUNNY     70  46  42 N17G25    30.14F
NORTON         MOSUNNY   72  39  30 N13G22    30.14F
PHILLIPSBURG   SUNNY     72  43  35 N15G22    30.13F
SMITH CENTER   SUNNY     68  45  42 N16G25    30.12S
HAYS           CLOUDY    67  49  52 N26       30.08F
RUSSELL        CLOUDY    70  50  49 N18G26    30.07R
CONCORDIA      CLOUDY    73  44  35 N21G28    30.07F
SALINA         CLOUDY    74  56  53 N17       30.02F
TOPEKA         CLOUDY    78  60  53 NW17G25   29.96R



USA.gov is the U.S. government's official web portal to all federal, state and local government web resources and services.